Location: Belfast
(54.5830°N, 5.9330°W)
Time: 04:18:22
(UTC+00:00)

Amateur Radio Satellites - All Passes

Search period start: 22 January 2018 03:48
Search period end: 23 January 2018 03:48
Location: Belfast, 54.5830°N, 5.9330°W

Satellite Date Start Highest point End Downlink Frequencies (MHz)
Time Altitude Azimuth
ITUPSAT 1 22 Jan 03:50:20 03:54:37 32° 265° (W) 03:58:57 437.325
KKS-1 22 Jan 03:56:23 04:00:27 37° 64° (ENE) 04:04:34 437.445
STARS 22 Jan 04:10:02 04:13:34 25° 58° (ENE) 04:17:08 437.465
MOZHAYETS 4 22 Jan 04:14:12 04:16:39 14° 275° (W) 04:19:08
O/OREOS (USA 219) 22 Jan 04:15:49 04:17:22 12° 339° (NNW) 04:18:56 437.305
CUBESAT XI-V 22 Jan 04:17:24 04:21:44 36° 264° (W) 04:26:04 437.345
DOVE 4 22 Jan 04:23:43 04:27:07 22° 92° (E) 04:30:39 437.250
STRAND 1 22 Jan 04:27:36 04:29:18 12° 43° (NE) 04:31:01 437.568
BEESAT 22 Jan 04:31:13 04:34:07 16° 273° (W) 04:37:03 436.000
ITAMSAT 1 22 Jan 04:44:45 04:50:00 88° 112° (ESE) 04:55:13 435.822/435.867
FO-29 22 Jan 04:50:37 04:52:49 12° 41° (NE) 04:54:58 435.910
XW-2D 22 Jan 05:12:11 05:12:23 10° 84° (E) 05:12:34 145.860 - 145.880
Gurwin Techsat 1B 22 Jan 05:12:15 05:14:06 12° 319° (NW) 05:15:55 435.225
SO-50 22 Jan 05:19:20 05:22:56 24° 118° (ESE) 05:26:36 436.795
AO-7 22 Jan 05:21:22 05:29:38 65° 300° (WNW) 05:37:50 .
M-CUBED/EXP-1 PRIME 22 Jan 05:25:16 05:28:28 35° 104° (ESE) 05:31:30 437.505
XW-2B 22 Jan 05:28:09 05:30:15 14° 88° (E) 05:32:20 145.730 - 145.750
KKS-1 22 Jan 05:33:01 05:37:04 34° 264° (W) 05:41:08 437.445
STARS 22 Jan 05:45:21 05:49:38 56° 259° (WSW) 05:53:59 437.465
LilacSat-2 22 Jan 05:56:54 06:00:15 28° 95° (E) 06:03:33 437.200
XW-2C 22 Jan 05:57:44 06:01:01 27° 94° (E) 06:04:15 145.795 - 145.815
RS-15 22 Jan 05:59:36 06:03:44 12° 88° (E) 06:07:50 29.354- 29.394
DOVE 4 22 Jan 06:00:56 06:05:09 56° 290° (WNW) 06:09:32 437.250
STRAND 1 22 Jan 06:02:30 06:07:20 45° 64° (ENE) 06:12:12 437.568
HO-68 22 Jan 06:11:11 06:16:41 23° 87° (E) 06:22:09 435.675
ITAMSAT 1 22 Jan 06:25:01 06:28:53 22° 308° (NW) 06:32:45 435.822/435.867
CUTE-I 22 Jan 06:25:34 06:30:38 42° 97° (E) 06:35:40 437.470
KAITUO 1B 22 Jan 06:29:07 06:32:38 40° 98° (E) 06:36:07 145.475/437.950
FO-29 22 Jan 06:30:43 06:36:43 43° 63° (ENE) 06:42:06 435.910
XW-2F 22 Jan 06:32:45 06:36:27 56° 101° (E) 06:40:07 145.980 - 146.000
NUDT-PHONESAT 22 Jan 06:37:57 06:41:33 47° 99° (E) 06:45:05 437.300
SEEDS 22 Jan 06:40:50 06:43:39 17° 88° (E) 06:46:27 437.485
XW-2D 22 Jan 06:43:25 06:47:13 80° 103° (ESE) 06:50:58 145.860 - 145.880
CUTE 1.7 + AOD 2 22 Jan 06:55:00 06:58:52 34° 95° (E) 07:02:43 437.475
SO-50 22 Jan 06:58:29 07:03:00 75° 320° (NW) 07:07:37 436.795
M-CUBED/EXP-1 PRIME 22 Jan 06:59:54 07:02:47 25° 305° (NW) 07:05:32 437.505
XW-2B 22 Jan 07:01:07 07:04:54 71° 287° (WNW) 07:08:38 145.730 - 145.750
AO-7 22 Jan 07:14:37 07:21:03 26° 325° (NW) 07:27:29 .
YUBILEINY 22 Jan 07:16:17 07:21:38 17° 37° (NE) 07:26:56 435.215
CUBEBUG 2 22 Jan 07:18:37 07:23:10 42° 97° (E) 07:27:41 437.445
UWE-3 22 Jan 07:21:46 07:25:51 29° 92° (E) 07:29:53 435.000/436.395/437.385
TIGRISAT 22 Jan 07:25:52 07:28:36 16° 52° (NE) 07:31:23 435.000
LilacSat-2 22 Jan 07:31:06 07:34:34 34° 294° (WNW) 07:37:59 437.200
XW-2C 22 Jan 07:31:47 07:35:15 35° 294° (WNW) 07:38:42 145.795 - 145.815
O/OREOS (USA 219) 22 Jan 07:37:33 07:40:24 16° 31° (NNE) 07:43:16 437.305
UNISAT 6 22 Jan 07:40:38 07:44:02 21° 56° (NE) 07:47:30 437.425
DOVE 4 22 Jan 07:40:54 07:42:02 11° 310° (NW) 07:43:11 437.250
STRAND 1 22 Jan 07:41:59 07:46:39 35° 264° (W) 07:51:22 437.568
ZACube-1 22 Jan 07:42:56 07:46:45 25° 91° (E) 07:50:31 437.345
AO-73 22 Jan 07:48:57 07:52:46 25° 91° (E) 07:56:31 145.935
AAUSAT CUBESAT 2 22 Jan 07:53:36 07:57:26 37° 97° (E) 08:01:15 437.432
HO-68 22 Jan 07:58:14 08:05:28 86° 110° (ESE) 08:12:38 435.675
RS-15 22 Jan 08:01:25 08:12:46 46° 113° (ESE) 08:23:54 29.354- 29.394
KAITUO 1B 22 Jan 08:03:24 08:06:27 24° 297° (WNW) 08:09:27 145.475/437.950
CUTE-I 22 Jan 08:05:44 08:10:43 41° 298° (WNW) 08:15:41 437.470
XW-2F 22 Jan 08:07:31 08:10:14 19° 300° (WNW) 08:12:55 145.980 - 146.000
NUDT-PHONESAT 22 Jan 08:12:17 08:15:08 21° 299° (WNW) 08:17:57 437.300
XW-2A 22 Jan 08:13:21 08:16:39 46° 100° (E) 08:19:52 145.665 - 145.685
FO-29 22 Jan 08:15:35 08:21:51 46° 261° (W) 08:27:28 435.910
SEEDS 22 Jan 08:15:37 08:19:47 68° 289° (WNW) 08:23:55 437.485
XW-2D 22 Jan 08:18:42 08:20:52 15° 304° (WNW) 08:23:02 145.860 - 145.880
Oscar 11 22 Jan 08:20:49 08:24:42 31° 94° (E) 08:28:31 .
CUTE 1.7 + AOD 2 22 Jan 08:30:53 08:34:43 34° 295° (WNW) 08:38:31 437.475
XW-2B 22 Jan 08:37:10 08:38:22 11° 307° (NW) 08:39:34 145.730 - 145.750
SO-50 22 Jan 08:40:08 08:44:07 29° 342° (NNW) 08:48:11 436.795
CUBEBUG 2 22 Jan 08:55:24 08:59:43 35° 297° (WNW) 09:04:01 437.445
UWE-3 22 Jan 08:57:58 09:02:30 49° 292° (WNW) 09:06:59 435.000/436.395/437.385
TIGRISAT 22 Jan 09:00:06 09:04:34 79° 73° (ENE) 09:09:12 435.000
BEESAT 3 22 Jan 09:00:37 09:02:24 13° 113° (ESE) 09:04:11 437.485
AIST 2D 22 Jan 09:03:15 09:04:43 12° 56° (NE) 09:06:10 435.315
PCSat 22 Jan 09:03:24 09:06:50 17° 106° (ESE) 09:10:16 145.827
PRISM 22 Jan 09:05:09 09:08:38 29° 62° (ENE) 09:12:09 437.425
AO-7 22 Jan 09:06:59 09:11:05 15° 351° (N) 09:15:12 .
YUBILEINY 22 Jan 09:12:47 09:21:13 48° 66° (ENE) 09:29:34 435.215
UNISAT 6 22 Jan 09:15:47 09:20:17 72° 257° (WSW) 09:24:54 437.425
O/OREOS (USA 219) 22 Jan 09:16:21 09:20:47 58° 54° (NE) 09:25:13 437.305
ZACube-1 22 Jan 09:18:50 09:23:19 53° 291° (WNW) 09:27:43 437.345
AO-73 22 Jan 09:24:49 09:29:17 52° 291° (WNW) 09:33:39 145.935
POLYITAN 1 22 Jan 09:26:02 09:27:30 12° 49° (NE) 09:28:59 437.675
AAUSAT CUBESAT 2 22 Jan 09:29:12 09:32:50 31° 296° (WNW) 09:36:26 437.432
NANOSAT C BR1 22 Jan 09:39:44 09:41:46 13° 51° (NE) 09:43:49 145.865
HO-68 22 Jan 09:46:31 09:52:32 30° 311° (NW) 09:58:34 435.675
XW-2A 22 Jan 09:46:38 09:49:03 19° 299° (WNW) 09:51:27 145.665 - 145.685
CUTE-I 22 Jan 09:47:57 09:49:30 11° 319° (NW) 09:51:03 437.470
BEESAT 2 22 Jan 09:51:56 09:53:31 12° 112° (ESE) 09:55:07 435.950
SEEDS 22 Jan 09:52:57 09:54:43 12° 308° (NW) 09:56:28 437.485
DELFI C3 22 Jan 09:53:15 09:57:05 51° 100° (E) 10:00:56 145.870
QB50P2 22 Jan 09:53:52 09:56:57 20° 57° (ENE) 10:00:03 145.880/145.840
Oscar 11 22 Jan 09:56:52 10:00:56 40° 294° (WNW) 10:04:58 .
RS-15 22 Jan 10:12:14 10:24:38 81° 320° (NW) 10:36:41 29.354- 29.394
Max Valier Satellite 22 Jan 10:16:18 10:20:01 61° 102° (ESE) 10:23:39 145.860
DUCHIFAT 1 22 Jan 10:20:58 10:24:20 24° 59° (ENE) 10:27:45 145.980
SO-50 22 Jan 10:22:02 10:25:49 24° 7° (N) 10:29:41 436.795
EO-79 22 Jan 10:23:28 10:27:11 30° 62° (ENE) 10:30:56 145.935-145.965
EO-88 22 Jan 10:31:55 10:35:33 60° 102° (ESE) 10:39:08 145.990 - 145.960
AIST 2D 22 Jan 10:33:48 10:37:19 89° 65° (ENE) 10:40:51 435.315
BEESAT 3 22 Jan 10:35:15 10:39:13 72° 133° (SE) 10:43:13 437.485
UWE-3 22 Jan 10:36:34 10:37:56 11° 313° (NW) 10:39:17 435.000/436.395/437.385
TIGRISAT 22 Jan 10:38:54 10:41:52 17° 273° (W) 10:44:54 435.000
PRISM 22 Jan 10:39:58 10:43:48 40° 261° (W) 10:47:40 437.425
PCSat 22 Jan 10:44:00 10:49:24 76° 127° (SE) 10:54:51 145.827
ESTCUBE 1 22 Jan 10:47:17 10:50:01 16° 87° (E) 10:52:43 437.505/2401.250
AO-7 22 Jan 10:55:52 11:00:44 17° 19° (NNE) 11:05:34 .
UNISAT 6 22 Jan 10:56:12 10:57:52 12° 277° (W) 10:59:34 437.425
O/OREOS (USA 219) 22 Jan 10:56:16 10:59:54 24° 255° (WSW) 11:03:30 437.305
ZACube-1 22 Jan 10:57:02 10:58:38 12° 312° (NW) 11:00:13 437.345
POLYITAN 1 22 Jan 10:58:14 11:02:25 58° 69° (ENE) 11:06:39 437.675
AO-73 22 Jan 11:03:03 11:04:32 11° 312° (NW) 11:06:01 145.935
AO-91 22 Jan 11:06:03 11:06:24 10° 50° (NE) 11:06:45 145.960
YUBILEINY 22 Jan 11:09:50 11:18:16 55° 270° (W) 11:26:38 435.215
NANOSAT C BR1 22 Jan 11:12:32 11:16:44 70° 71° (ENE) 11:20:59 145.865
BUGSAT 1 22 Jan 11:17:08 11:20:22 22° 59° (ENE) 11:23:38 437.445
BEESAT 2 22 Jan 11:26:29 11:30:30 68° 132° (SE) 11:34:33 435.950
QB50P2 22 Jan 11:28:04 11:32:18 71° 256° (WSW) 11:36:36 145.880/145.840
DELFI C3 22 Jan 11:28:30 11:31:35 22° 299° (WNW) 11:34:38 145.870
HO-68 22 Jan 11:35:34 11:38:10 12° 336° (NNW) 11:40:46 435.675
Gurwin Techsat 1B 22 Jan 11:39:54 11:44:13 26° 55° (NE) 11:48:33 435.225
Oscar 19 22 Jan 11:42:39 11:47:13 32° 59° (ENE) 11:51:47 437.125/150
LO-87 22 Jan 11:46:46 11:50:24 61° 102° (ESE) 11:54:00 145.935 - 145.965
Max Valier Satellite 22 Jan 11:50:53 11:53:27 18° 301° (WNW) 11:55:59 145.860
DUCHIFAT 1 22 Jan 11:55:34 11:59:43 55° 259° (W) 12:03:55 145.980
EO-79 22 Jan 11:58:49 12:02:50 41° 262° (W) 12:06:54 145.935-145.965
SO-50 22 Jan 12:02:50 12:07:18 44° 30° (NNE) 12:11:50 436.795
SPROUT 22 Jan 12:02:51 12:06:09 21° 91° (E) 12:09:26 437.525
AO-85 22 Jan 12:04:31 12:08:05 30° 121° (ESE) 12:11:55 145.980
EO-88 22 Jan 12:06:21 12:08:48 17° 301° (WNW) 12:11:15 145.990 - 145.960
AIST 2D 22 Jan 12:10:30 12:11:02 10° 274° (W) 12:11:35 435.315
BEESAT 3 22 Jan 12:13:30 12:17:05 30° 334° (NNW) 12:20:39 437.485
VELOX 1 22 Jan 12:16:55 12:19:50 17° 89° (E) 12:22:42 145.980
ESTCUBE 1 22 Jan 12:22:55 12:27:27 85° 286° (WNW) 12:31:56 437.505/2401.250
RS-15 22 Jan 12:26:54 12:38:51 53° 351° (N) 12:50:19 29.354- 29.394
PCSat 22 Jan 12:28:18 12:33:17 36° 330° (NNW) 12:38:18 145.827
POLYITAN 1 22 Jan 12:35:18 12:38:33 21° 269° (W) 12:41:50 437.675
AO-91 22 Jan 12:38:43 12:42:07 71° 72° (ENE) 12:45:46 145.960
AO-7 22 Jan 12:43:54 12:51:12 35° 45° (NE) 12:58:31 .
NANOSAT C BR1 22 Jan 12:50:03 12:52:55 18° 271° (W) 12:55:48 145.865
BUGSAT 1 22 Jan 12:51:21 12:55:23 57° 258° (WSW) 12:59:32 437.445
ITAMSAT 1 22 Jan 12:54:46 12:57:10 13° 44° (NE) 12:59:34 435.822/435.867
BEESAT 2 22 Jan 13:04:51 13:08:31 32° 333° (NNW) 13:12:13 435.950
QB50P2 22 Jan 13:07:59 13:08:55 11° 277° (W) 13:09:52 145.880/145.840
YUBILEINY 22 Jan 13:08:46 13:13:00 15° 295° (WNW) 13:17:14 435.215
Gurwin Techsat 1B 22 Jan 13:18:26 13:23:44 73° 256° (WSW) 13:29:05 435.225
LO-87 22 Jan 13:20:58 13:23:25 17° 301° (WNW) 13:25:52 145.935 - 145.965
Oscar 19 22 Jan 13:21:13 13:26:19 55° 259° (W) 13:31:28 437.125/150
SPROUT 22 Jan 13:38:08 13:42:24 59° 290° (WNW) 13:46:37 437.525
SO-50 22 Jan 13:43:22 13:47:55 53° 232° (SW) 13:52:32 436.795
AO-85 22 Jan 13:44:09 13:48:15 57° 323° (NW) 13:52:44 145.980
UKube-1 22 Jan 13:49:28 13:52:30 18° 90° (E) 13:55:31 .
VELOX 1 22 Jan 13:52:23 13:56:48 76° 288° (WNW) 14:01:12 145.980
BEESAT 3 22 Jan 13:52:47 13:55:40 19° 357° (N) 13:58:32 437.485
ESTCUBE 1 22 Jan 14:00:48 14:03:37 17° 307° (NW) 14:06:27 437.505/2401.250
DX 1 22 Jan 14:03:54 14:07:56 36° 97° (E) 14:11:57 434.975-435.025
PCSat 22 Jan 14:13:56 14:18:10 22° 356° (N) 14:22:24 145.827
AO-91 22 Jan 14:17:47 14:19:14 12° 274° (W) 14:20:42 145.960
50 SAT 22 Jan 14:18:41 14:21:41 42° 100° (E) 14:24:40 437.505
MOZHAYETS 4 22 Jan 14:23:10 14:25:53 15° 86° (E) 14:28:35
ITAMSAT 1 22 Jan 14:30:35 14:35:35 52° 65° (ENE) 14:40:36 435.822/435.867
AO-7 22 Jan 14:34:52 14:43:17 86° 248° (WSW) 14:51:45 .
RS-15 22 Jan 14:41:42 14:53:42 61° 24° (NNE) 15:05:03 29.354- 29.394
M-CUBED/EXP-1 PRIME 22 Jan 14:42:50 14:46:17 26° 55° (NE) 14:49:31 437.505
BEESAT 2 22 Jan 14:44:18 14:47:17 19° 356° (N) 14:50:17 435.950
BEESAT 22 Jan 14:45:08 14:47:45 14° 86° (E) 14:50:21 436.000
Gurwin Techsat 1B 22 Jan 15:01:52 15:04:39 14° 276° (W) 15:07:27 435.225
HO-68 22 Jan 15:04:07 15:07:38 14° 29° (NNE) 15:11:10 435.675
Oscar 19 22 Jan 15:06:24 15:06:51 10° 280° (W) 15:07:18 437.125/150
SPROUT 22 Jan 15:15:53 15:17:26 12° 311° (NW) 15:18:59 437.525
UKube-1 22 Jan 15:24:40 15:28:59 68° 289° (WNW) 15:33:16 .
AO-85 22 Jan 15:25:53 15:29:32 25° 348° (NNW) 15:33:27 145.980
SO-50 22 Jan 15:26:25 15:27:25 11° 251° (WSW) 15:28:26 436.795
VELOX 1 22 Jan 15:30:06 15:32:34 15° 308° (NW) 15:35:01 145.980
BEESAT 3 22 Jan 15:30:59 15:34:21 25° 21° (NNE) 15:37:40 437.485
DOVE 4 22 Jan 15:35:47 15:39:48 46° 68° (ENE) 15:43:47 437.250
DX 1 22 Jan 15:40:10 15:44:07 35° 297° (WNW) 15:48:04 434.975-435.025
ITUPSAT 1 22 Jan 15:42:56 15:47:30 40° 97° (E) 15:52:02 437.325
XW-2F 22 Jan 15:48:24 15:49:49 12° 54° (NE) 15:51:13 145.980 - 146.000
50 SAT 22 Jan 15:50:59 15:53:09 17° 299° (WNW) 15:55:18 437.505
XW-2D 22 Jan 15:58:27 16:00:45 16° 57° (ENE) 16:03:03 145.860 - 145.880
PCSat 22 Jan 15:58:33 16:03:14 28° 21° (NNE) 16:07:54 145.827
MOZHAYETS 4 22 Jan 15:59:03 16:03:44 89° 87° (E) 16:08:22
CUBESAT XI-V 22 Jan 16:06:22 16:10:38 35° 95° (E) 16:14:50 437.345
ITAMSAT 1 22 Jan 16:10:42 16:15:17 31° 265° (W) 16:19:55 435.822/435.867
XW-2B 22 Jan 16:15:26 16:18:18 20° 60° (ENE) 16:21:10 145.730 - 145.750
CUTE-I 22 Jan 16:15:40 16:20:06 28° 56° (NE) 16:24:32 437.470
M-CUBED/EXP-1 PRIME 22 Jan 16:16:26 16:20:31 49° 253° (WSW) 16:24:20 437.505
BEESAT 22 Jan 16:21:28 16:26:18 82° 106° (ESE) 16:31:06 436.000
CUTE 1.7 + AOD 2 22 Jan 16:21:34 16:22:56 11° 50° (NE) 16:24:16 437.475
BEESAT 2 22 Jan 16:22:45 16:26:11 25° 20° (NNE) 16:29:34 435.950
AO-7 22 Jan 16:30:32 16:37:14 26° 271° (W) 16:44:01 .
LilacSat-2 22 Jan 16:44:50 16:48:28 39° 67° (ENE) 16:52:04 437.200
XW-2C 22 Jan 16:45:02 16:48:34 36° 67° (ENE) 16:52:07 145.795 - 145.815
HO-68 22 Jan 16:47:06 16:53:31 38° 53° (NE) 16:59:58 435.675
CUBEBUG 2 22 Jan 16:49:00 16:51:35 15° 51° (NE) 16:54:12 437.445
UWE-3 22 Jan 16:52:34 16:53:46 11° 47° (NE) 16:54:59 435.000/436.395/437.385
RS-15 22 Jan 16:54:58 17:06:47 73° 233° (SW) 17:17:56 29.354- 29.394
UKube-1 22 Jan 17:02:09 17:04:15 13° 310° (NW) 17:06:19 .
AO-85 22 Jan 17:07:26 17:11:15 25° 12° (NNE) 17:15:19 145.980
BEESAT 3 22 Jan 17:08:26 17:12:25 79° 41° (NE) 17:16:19 437.485
DOVE 4 22 Jan 17:14:18 17:17:45 24° 267° (W) 17:21:11 437.250
KAITUO 1B 22 Jan 17:14:56 17:18:35 52° 70° (ENE) 17:22:16 145.475/437.950
KKS-1 22 Jan 17:16:29 17:20:20 28° 94° (E) 17:24:09 437.445
AAUSAT CUBESAT 2 22 Jan 17:17:56 17:19:08 11° 51° (NE) 17:20:21 437.432
XW-2F 22 Jan 17:19:27 17:23:15 74° 73° (ENE) 17:27:03 145.980 - 146.000
ITUPSAT 1 22 Jan 17:20:53 17:25:19 37° 298° (WNW) 17:29:45 437.325
NUDT-PHONESAT 22 Jan 17:22:48 17:26:29 59° 71° (ENE) 17:30:10 437.300
STARS 22 Jan 17:28:15 17:31:09 17° 89° (E) 17:34:01 437.465
XW-2D 22 Jan 17:30:37 17:34:26 78° 256° (WSW) 17:38:17 145.860 - 145.880
NO-84 22 Jan 17:36:50 17:39:19 24° 147° (SSE) 17:41:44 435.350 FM
MOZHAYETS 4 22 Jan 17:37:09 17:40:18 18° 306° (NW) 17:43:26
SEEDS 22 Jan 17:38:30 17:42:09 29° 63° (ENE) 17:45:48 437.485
PCSat 22 Jan 17:42:04 17:47:31 71° 45° (NE) 17:52:57 145.827
CUBESAT XI-V 22 Jan 17:43:45 17:48:04 39° 296° (WNW) 17:52:20 437.345
XW-2B 22 Jan 17:48:25 17:52:10 54° 259° (W) 17:55:56 145.730 - 145.750
Oscar 11 22 Jan 17:49:31 17:50:45 11° 49° (NE) 17:52:00 .
CUTE 1.7 + AOD 2 22 Jan 17:53:44 17:57:55 58° 71° (ENE) 18:02:07 437.475
CUTE-I 22 Jan 17:54:30 17:59:48 67° 257° (WSW) 18:05:07 437.470
BEESAT 22 Jan 18:00:01 18:03:33 21° 306° (NW) 18:07:05 436.000
BEESAT 2 22 Jan 18:00:25 18:04:29 76° 43° (NE) 18:08:28 435.950
XW-2C 22 Jan 18:19:32 18:22:50 27° 266° (W) 18:26:08 145.795 - 145.815
LilacSat-2 22 Jan 18:19:35 18:22:51 26° 266° (W) 18:26:06 437.200
CUBEBUG 2 22 Jan 18:22:57 18:27:24 74° 72° (ENE) 18:32:03 437.445
UWE-3 22 Jan 18:24:50 18:29:11 49° 68° (ENE) 18:33:40 435.000/436.395/437.385
HO-68 22 Jan 18:33:49 18:40:56 68° 255° (WSW) 18:48:06 435.675
ZACube-1 22 Jan 18:44:43 18:48:59 43° 67° (ENE) 18:53:21 437.345
BEESAT 3 22 Jan 18:46:42 18:49:29 19° 243° (WSW) 18:52:13 437.485
AO-85 22 Jan 18:47:58 18:52:35 52° 35° (NE) 18:57:33 145.980
AAUSAT CUBESAT 2 22 Jan 18:49:43 18:53:47 60° 71° (ENE) 18:57:52 437.432
KAITUO 1B 22 Jan 18:50:09 18:52:51 19° 269° (W) 18:55:34 145.475/437.950
XW-2A 22 Jan 18:50:17 18:53:36 48° 70° (ENE) 18:56:55 145.665 - 145.685
AO-73 22 Jan 18:50:23 18:54:40 44° 66° (ENE) 18:59:01 145.935
KKS-1 22 Jan 18:52:49 18:57:05 47° 294° (WNW) 19:01:22 437.445
XW-2F 22 Jan 18:55:44 18:57:49 14° 272° (W) 18:59:54 145.980 - 146.000
NUDT-PHONESAT 22 Jan 18:58:12 19:00:40 17° 270° (W) 19:03:07 437.300
STARS 22 Jan 19:03:36 19:08:02 78° 287° (WNW) 19:12:27 437.465
RS-15 22 Jan 19:08:24 19:17:06 26° 260° (W) 19:25:31 29.354- 29.394
XW-2D 22 Jan 19:08:58 19:09:16 10° 275° (W) 19:09:36 145.860 - 145.880
DELFI C3 22 Jan 19:12:43 19:14:20 12° 53° (NE) 19:15:57 145.870
NO-84 22 Jan 19:13:16 19:16:11 79° 169° (S) 19:19:02 435.350 FM
SEEDS 22 Jan 19:13:43 19:17:43 41° 262° (W) 19:21:44 437.485
FO-29 22 Jan 19:17:57 19:21:04 16° 85° (E) 19:24:09 435.910
Oscar 11 22 Jan 19:21:45 19:26:00 54° 69° (ENE) 19:30:16 .
PCSat 22 Jan 19:25:54 19:30:33 29° 246° (WSW) 19:35:10 145.827
Max Valier Satellite 22 Jan 19:30:10 19:31:35 12° 54° (NE) 19:32:59 145.860
CUTE 1.7 + AOD 2 22 Jan 19:30:51 19:34:06 21° 270° (W) 19:37:22 437.475
CUTE-I 22 Jan 19:38:31 19:40:53 13° 277° (W) 19:43:17 437.470
BEESAT 2 22 Jan 19:38:47 19:41:46 20° 243° (WSW) 19:44:43 435.950
STRAND 1 22 Jan 19:44:35 19:49:35 48° 99° (E) 19:54:34 437.568
EO-88 22 Jan 19:44:57 19:46:05 11° 54° (NE) 19:47:14 145.990 - 145.960
CUBEBUG 2 22 Jan 20:01:27 20:04:35 18° 273° (W) 20:07:48 437.445
UWE-3 22 Jan 20:02:00 20:05:52 27° 268° (W) 20:09:50 435.000/436.395/437.385
ZACube-1 22 Jan 20:21:23 20:25:24 31° 266° (W) 20:29:29 437.345
XW-2A 22 Jan 20:24:12 20:26:32 17° 269° (W) 20:28:53 145.665 - 145.685
HO-68 22 Jan 20:25:42 20:30:06 17° 278° (W) 20:34:31 435.675
AAUSAT CUBESAT 2 22 Jan 20:26:36 20:29:36 19° 270° (W) 20:32:37 437.432
AO-73 22 Jan 20:27:02 20:31:02 31° 266° (W) 20:35:06 145.935
AO-85 22 Jan 20:28:27 20:33:03 44° 235° (SW) 20:37:56 145.980
KKS-1 22 Jan 20:31:58 20:32:39 10° 314° (NW) 20:33:20 437.445
STARS 22 Jan 20:41:08 20:43:42 15° 308° (NW) 20:46:15 437.465
DELFI C3 22 Jan 20:44:30 20:48:23 74° 74° (ENE) 20:52:19 145.870
TIGRISAT 22 Jan 20:46:19 20:48:05 12° 83° (E) 20:49:52 435.000
NO-84 22 Jan 20:50:30 20:53:22 84° 8° (N) 20:56:12 435.350 FM
LO-87 22 Jan 20:58:42 20:59:31 11° 53° (NE) 21:00:20 145.935 - 145.965
Oscar 11 22 Jan 20:58:58 21:02:26 23° 269° (W) 21:05:57 .
nSIGHT-1 22 Jan 21:00:59 21:03:20 19° 151° (SSE) 21:05:42 .
Max Valier Satellite 22 Jan 21:00:59 21:04:44 76° 74° (ENE) 21:08:30 145.860
UNISAT 6 22 Jan 21:01:06 21:04:13 17° 87° (E) 21:07:19 437.425
FO-29 22 Jan 21:01:50 21:07:08 87° 106° (ESE) 21:12:21 435.910
EO-88 22 Jan 21:15:24 21:19:04 74° 73° (ENE) 21:22:44 145.990 - 145.960
ISS 22 Jan 21:21:31 21:24:02 21° 151° (SSE) 21:26:34 437.550
STRAND 1 22 Jan 21:24:02 21:28:40 35° 300° (WNW) 21:33:17 437.568
ESTCUBE 1 22 Jan 21:52:44 21:56:46 32° 62° (ENE) 22:00:48 437.505/2401.250
PRISM 22 Jan 22:14:31 22:17:16 17° 90° (E) 22:20:00 437.425
TIGRISAT 22 Jan 22:20:56 22:25:39 69° 102° (ESE) 22:30:21 435.000
DELFI C3 22 Jan 22:21:25 22:23:38 15° 272° (W) 22:25:51 145.870
YUBILEINY 22 Jan 22:22:54 22:30:55 41° 84° (E) 22:38:54 435.215
NO-84 22 Jan 22:27:43 22:30:22 37° 207° (SSW) 22:33:02 435.350 FM
LO-87 22 Jan 22:28:40 22:32:13 71° 73° (ENE) 22:35:50 145.935 - 145.965
nSIGHT-1 22 Jan 22:36:00 22:39:02 44° 170° (S) 22:42:04 .
UNISAT 6 22 Jan 22:36:47 22:41:32 83° 289° (WNW) 22:46:15 437.425
Max Valier Satellite 22 Jan 22:37:07 22:39:02 13° 273° (W) 22:40:58 145.860
FO-29 22 Jan 22:47:51 22:51:40 21° 309° (NW) 22:55:24 435.910
EO-88 22 Jan 22:51:21 22:53:09 13° 272° (W) 22:54:59 145.990 - 145.960
ISS 22 Jan 22:56:54 23:00:03 45° 170° (S) 23:03:12 437.550
SPROUT 22 Jan 23:02:09 23:06:05 37° 65° (ENE) 23:10:03 437.525
QB50P2 22 Jan 23:07:18 23:09:16 13° 85° (E) 23:11:15 145.880/145.840
VELOX 1 22 Jan 23:20:06 23:24:05 35° 63° (ENE) 23:28:04 145.980
AIST 2D 22 Jan 23:24:45 23:28:04 40° 98° (E) 23:31:21 435.315
ESTCUBE 1 22 Jan 23:29:11 23:33:29 42° 262° (W) 23:37:48 437.505/2401.250
DX 1 22 Jan 23:32:06 23:34:28 15° 51° (NE) 23:36:50 434.975-435.025
DUCHIFAT 1 22 Jan 23:33:16 23:35:53 16° 88° (E) 23:38:29 145.980
EO-79 22 Jan 23:36:32 23:39:50 21° 91° (E) 23:43:06 145.935-145.965
O/OREOS (USA 219) 22 Jan 23:37:18 23:40:05 16° 101° (E) 23:42:51 437.305
PRISM 22 Jan 23:48:54 23:52:57 67° 290° (WNW) 23:57:01 437.425
TIGRISAT 22 Jan 23:58:15 00:01:56 23° 303° (WNW) 00:05:36 435.000
LO-87 23 Jan 00:04:17 00:06:05 13° 272° (W) 00:07:54 145.935 - 145.965
POLYITAN 1 23 Jan 00:11:36 00:15:42 41° 98° (E) 00:19:47 437.675
nSIGHT-1 23 Jan 00:11:53 00:14:56 44° 190° (S) 00:17:59 .
UNISAT 6 23 Jan 00:14:32 00:17:35 17° 307° (NW) 00:20:38 437.425
YUBILEINY 23 Jan 00:18:40 00:27:24 63° 288° (WNW) 00:36:09 435.215
AO-91 23 Jan 00:22:28 00:23:27 11° 85° (E) 00:24:26 145.960
NANOSAT C BR1 23 Jan 00:25:17 00:29:28 49° 100° (E) 00:33:36 145.865
BUGSAT 1 23 Jan 00:27:02 00:29:21 14° 87° (E) 00:31:40 437.445
ISS 23 Jan 00:33:07 00:36:16 44° 191° (S) 00:39:25 437.550
SPROUT 23 Jan 00:38:11 00:42:02 32° 265° (W) 00:45:55 437.525
QB50P2 23 Jan 00:41:26 00:45:46 84° 103° (ESE) 00:50:04 145.880/145.840
50 SAT 23 Jan 00:49:08 00:52:03 39° 69° (ENE) 00:55:00 437.505
UKube-1 23 Jan 00:49:51 00:53:48 37° 64° (ENE) 00:57:47 .
VELOX 1 23 Jan 00:56:27 01:00:31 37° 263° (W) 01:04:37 145.980
AIST 2D 23 Jan 00:58:20 01:01:02 22° 298° (WNW) 01:03:45 435.315
DX 1 23 Jan 01:05:38 01:09:57 75° 72° (ENE) 01:14:19 434.975-435.025
DUCHIFAT 1 23 Jan 01:07:48 01:12:05 79° 288° (WNW) 01:16:21 145.980
EO-79 23 Jan 01:11:42 01:15:57 59° 290° (WNW) 01:20:09 145.935-145.965
O/OREOS (USA 219) 23 Jan 01:14:22 01:18:53 86° 301° (WNW) 01:23:24 437.305
ITUPSAT 1 23 Jan 01:20:13 01:23:43 20° 54° (NE) 01:27:14 437.325
Oscar 19 23 Jan 01:25:41 01:30:20 32° 94° (E) 01:34:55 437.125/150
PRISM 23 Jan 01:25:51 01:27:30 12° 309° (NW) 01:29:08 437.425
Gurwin Techsat 1B 23 Jan 01:27:46 01:32:18 27° 92° (E) 01:36:46 435.225
MOZHAYETS 4 23 Jan 01:30:57 01:35:04 32° 62° (ENE) 01:39:12
CUBESAT XI-V 23 Jan 01:41:12 01:43:56 16° 52° (NE) 01:46:39 437.345
POLYITAN 1 23 Jan 01:47:36 01:51:24 30° 297° (WNW) 01:55:09 437.675
nSIGHT-1 23 Jan 01:48:15 01:50:37 19° 209° (SSW) 01:52:59 .
AO-91 23 Jan 01:56:15 02:00:36 64° 102° (ESE) 02:05:25 145.960
BEESAT 23 Jan 01:57:20 02:01:41 36° 62° (ENE) 02:06:04 436.000
BUGSAT 1 23 Jan 02:01:02 02:05:19 87° 284° (WNW) 02:09:35 437.445
NANOSAT C BR1 23 Jan 02:01:22 02:04:57 26° 299° (WNW) 02:08:30 145.865
ISS 23 Jan 02:09:49 02:12:15 19° 210° (SSW) 02:14:42 437.550
QB50P2 23 Jan 02:18:11 02:21:01 18° 305° (NW) 02:23:51 145.880/145.840
YUBILEINY 23 Jan 02:19:55 02:26:20 22° 315° (NW) 02:32:46 435.215
50 SAT 23 Jan 02:21:51 02:23:56 17° 267° (W) 02:26:02 437.505
UKube-1 23 Jan 02:25:59 02:29:52 33° 263° (W) 02:33:48 .
AO-7 23 Jan 02:29:27 02:35:29 21° 85° (E) 02:41:27 .
DX 1 23 Jan 02:43:51 02:46:40 17° 271° (W) 02:49:30 434.975-435.025
DUCHIFAT 1 23 Jan 02:44:43 02:47:05 15° 307° (NW) 02:49:27 145.980
KKS-1 23 Jan 02:47:34 02:49:23 12° 48° (NE) 02:51:10 437.445
EO-79 23 Jan 02:49:20 02:50:51 12° 311° (NW) 02:52:22 145.935-145.965
O/OREOS (USA 219) 23 Jan 02:55:32 02:58:58 21° 323° (NW) 03:02:23 437.305
ITUPSAT 1 23 Jan 02:56:12 03:01:00 84° 255° (WSW) 03:05:52 437.325
Oscar 19 23 Jan 03:04:52 03:09:53 51° 295° (WNW) 03:14:51 437.125/150
Gurwin Techsat 1B 23 Jan 03:07:23 03:12:38 62° 292° (WNW) 03:17:53 435.225
MOZHAYETS 4 23 Jan 03:07:40 03:12:07 44° 262° (W) 03:16:35
CUBESAT XI-V 23 Jan 03:15:54 03:20:35 74° 71° (ENE) 03:25:16 437.345
AO-91 23 Jan 03:33:23 03:36:49 23° 299° (WNW) 03:40:30 145.960
BEESAT 23 Jan 03:34:55 03:39:26 41° 262° (W) 03:43:59 436.000
BUGSAT 1 23 Jan 03:37:29 03:40:05 16° 306° (NW) 03:42:40 437.445
